RH
90 91 90 89 86 87 90 90 83 77 74 73 75 78 82 85 81 86 93 87 72 79 74 66 60 65 72 79 77 71 78 79 92 89 93 92 91 81 85 78 78 77 86 94 93 94 84 76 82 75 57 91 88 90
92 91 91 90 89 87 89 92 89 84 80 76 75 76 77 82 84 80 93 80 81 81 66 77 67 70 60 60 71 83 80 85 85 91 94 95 87 89 81 82 77 82 69 70 78 72 54 81 70 73 83 84 88 87
93 92 92 90 90 89 88 90 92 87 83 78 75 74 74 80 85 79 85 78 79 88 82 79 78 78 73 72 69 73 85 86 89 89 94 93 94 88 89 87 79 72 78 78 70 67 70 71 79 80 84 83 84 84
94 93 93 91 91 90 89 90 93 90 84 78 74 73 73 76 81 83 88 84 70 78 84 74 70 80 78 76 78 79 81 83 88 93 90 94 93 80 88 75 80 64 78 80 82 70 69 59 79 81 82 82 86 86
94 94 93 93 92 91 90 90 93 92 87 81 76 74 75 77 80 90 90 89 71 69 86 80 75 79 81 80 79 82 83 85 93 90 95 93 94 92 93 94 98 75 70 69 64 55 54 48 72 82 84 86 87 88
94 94 94 94 93 92 91 92 93 94 89 85 82 80 79 81 86 97 98 91 81 71 86 87 76 86 85 84 84 88 91 92 94 94 95 94 88 88 96 96 75 79 69 58 53 56 60 68 66 82 82 87 89 88
94 94 95 94 94 93 92 92 94 94 90 86 84 82 81 88 86 85 89 78 78 80 84 86 78 85 84 86 93 94 90 94 94 94 97 94 90 92 96 97 52 65 66 67 66 74 69 79 67 86 84 85 84 87
95 95 95 96 94 94 93 93 94 95 93 88 82 80 86 74 78 87 83 80 76 79 84 95 83 83 85 94 96 95 96 96 95 94 94 96 92 95 95 62 48 56 59 58 61 68 60 73 82 88 87 91 92 92
95 95 95 96 95 94 94 94 94 96 95 89 85 88 92 95 99 94 81 79 85 78 93 96 94 83 90 95 95 96 95 97 93 97 95 94 93 98 67 56 51 59 62 54 64 69 68 75 77 88 89 91 88 92
95 96 95 96 96 95 95 94 95 97 94 91 94 95 100 98 82 83 89 95 95 94 98 98 94 94 90 96 97 96 97 98 98 94 94 98 93 70 59 55 50 47 60 63 69 67 82 88 84 90 88 86 83 87
95 95 96 96 96 96 96 96 96 96 92 98 99 100 99 88 93 96 100 99 99 99 98 95 86 95 90 92 94 93 97 98 99 84 96 94 96 86 59 60 57 58 59 63 57 51 57 70 76 85 89 87 86 88
95 95 95 96 96 96 97 96 96 90 95 92 95 96 98 99 100 100 98 99 99 94 93 98 98 83 93 91 93 97 98 92 99 87 99 98 84 71 66 62 62 62 65 65 62 59 60 73 84 83 84 89 89 87
95 95 95 95 96 96 96 96 91 91 87 96 97 100 100 99 99 98 98 99 99 97 97 98 99 92 99 96 96 95 99 96 87 97 93 91 76 67 66 74 70 72 72 77 77 70 73 81 87 88 91 90 91 88
94 95 95 95 96 97 97 96 93 86 92 99 98 98 97 98 94 92 86 89 92 95 95 96 100 95 94 99 93 99 91 93 98 97 94 83 68 59 75 80 82 78 83 87 90 87 87 89 92 91 90 89 86 85
94 95 95 96 96 96 97 95 89 88 97 99 99 95 98 89 97 93 92 93 96 87 89 96 98 95 100 96 95 96 96 97 95 89 87 87 63 74 76 73 81 86 89 92 95 96 95 96 95 94 91 88 83 80
94 96 96 94 96 96 96 94 91 98 100 100 99 99 95 94 99 98 91 98 95 85 88 92 99 99 95 95 97 96 98 97 87 93 91 94 90 87 85 75 84 92 93 93 91 92 93 95 93 92 92 88 84 81
95 97 91 93 95 96 94 93 100 100 99 99 99 92 87 93 84 88 92 90 80 76 90 94 98 84 95 100 99 95 95 87 87 87 89 90 87 84 86 91 92 96 96 94 88 88 88 88 90 89 89 91 91 88
98 92 93 94 96 97 94 100 100 99 99 99 98 97 81 86 88 94 99 90 84 86 85 89 86 97 90 93 95 92 91 91 88 80 81 85 89 87 90 90 91 96 95 95 94 95 95 93 90 87 88 90 91 93
92 90 94 95 93 97 100 99 100 99 98 98 98 91 87 88 90 84 91 87 88 88 89 96 87 96 86 88 68 86 87 87 69 65 89 90 86 84 86 92 95 97 96 95 96 95 92 87 80 80 81 83 81 88
93 95 95 95 86 100 99 99 100 99 98 98 96 97 94 93 78 90 92 92 96 98 98 97 89 68 87 83 84 70 67 68 80 81 77 85 81 88 88 91 94 95 96 97 96 86 96 93 88 79 80 80 84 89
96 96 95 93 100 100 100 99 99 99 98 98 98 90 97 98 95 94 97 96 99 97 94 80 64 54 57 60 62 71 75 81 67 62 62 60 56 90 89 94 96 98 97 98 96 95 87 88 83 87 89 81 82 82
99 95 100 98 100 99 100 100 98 98 98 98 97 95 99 98 99 93 95 98 95 86 82 66 61 63 64 66 63 64 62 68 70 72 67 67 77 92 96 92 99 97 96 93 93 93 91 87 91 96 94 88 84 89
92 94 100 100 98 99 98 99 97 99 98 98 98 98 98 98 97 94 98 96 89 83 66 65 64 65 68 66 71 76 77 76 75 74 71 72 66 67 72 88 92 90 92 91 90 90 90 88 94 96 97 91 93 92
92 100 99 98 98 97 98 98 98 97 98 98 97 97 97 97 98 98 97 97 91 81 74 72 70 74 78 88 83 72 68 86 79 72 71 76 78 75 86 79 87 87 81 94 92 92 94 97 95 96 96 94 91 89
98 98 98 97 97 96 96 97 97 97 97 97 97 97 97 97 97 97 97 94 78 74 72 73 83 78 79 75 69 68 68 78 78 80 75 79 77 84 97 93 90 88 90 92 97 96 95 97 97 96 96 93 92 90
97 98 97 95 97 92 95 97 97 96 96 97 96 97 97 97 97 95 94 85 69 82 86 82 79 80 80 75 73 71 68 89 85 87 78 84 86 84 86 90 95 94 93 88 91 94 95 96 96 96 96 89 87 91
96 97 96 85 86 88 97 96 95 93 95 96 96 96 96 97 94 85 89 93 83 87 94 92 78 77 74 76 79 80 96 92 88 84 84 92 85 81 81 84 87 85 91 90 90 90 93 96 96 96 92 91 92 91
95 95 94 97 96 95 96 95 95 95 96 95 93 99 95 90 83 85 88 96 97 99 99 98 100 99 100 98 98 98 100 100 100 100 98 99 100 99 95 92 95 85 91 90 90 92 96 96 96 93 91 92 93 91
97 95 87 100 97 96 94 93 93 89 81 85 86 94 92 91 93 94 95 97 100 98 96 98 100 99 100 99 100 100 100 99 99 100 99 98 99 97 98 97 94 93 93 93 88 93 97 97 96 89 89 91 92 94
98 96 95 96 94 96 93 92 94 96 95 94 94 95 95 96 95 97 98 99 98 94 90 93 97 99 98 99 96 96 97 98 96 92 94 94 93 96 97 97 98 97 96 96 97 98 98 96 90 96 96 96 97 97
97 95 94 95 96 95 96 96 95 95 97 99 99 98 97 98 93 97 96 96 96 99 99 100 100 100 98 92 94 97 98 97 95 93 97 98 98 97 97 96 95 95 96 97 97 97 97 96 96 96 96 96 96 94
94 95 95 96 97 97 98 99 100 99 100 100 99 99 99 97 98 92 99 100 100 100 99 98 100 97 96 97 98 96 85 96 96 95 97 94 97 97 96 96 96 96 97 97 97 96 96 95 95 95 95 95 94 94
96 96 97 97 98 100 98 97 100 100 100 100 100 100 100 97 90 91 98 100 99 98 97 97 97 99 98 97 95 95 88 95 94 88 88 90 90 94 95 96 96 96 96 96 96 95 96 96 95 94 92 93 94 93
Wind_Speed
17 17 15 13 11 11 11 13 12 11 9 7 6 5 6 7 2 3 1 2 3 2 6 6 4 5 2 2 3 3 4 3 2 1 1 3 3 4 1 5 5 6 5 5 3 4 8 5 3 6 5 2 3 2
18 18 17 15 14 13 12 14 13 11 9 8 7 6 5 8 6 5 0 1 2 3 5 2 4 2 4 4 5 0 4 3 4 2 1 2 3 0 3 5 1 4 8 4 9 8 5 7 7 5 5 5 5 5
19 19 19 17 16 15 14 14 15 13 11 10 8 6 4 7 6 4 1 1 1 2 5 3 4 1 2 3 3 3 2 2 1 2 3 2 4 3 3 7 3 5 3 4 2 4 8 10 7 6 6 7 6 5
20 20 20 19 17 16 16 15 16 16 14 12 10 8 5 4 4 5 1 2 1 1 1 5 0 2 1 3 3 2 2 2 3 2 1 2 2 3 4 5 5 6 6 6 7 9 8 12 10 7 8 5 6 5
22 21 21 20 19 18 16 15 15 18 16 14 11 8 6 5 5 3 2 4 2 2 3 5 3 2 2 5 5 4 4 3 2 1 2 4 3 1 3 2 7 8 9 8 10 10 6 6 3 8 8 9 9 9
23 23 23 22 21 20 18 17 16 18 17 14 11 8 7 7 6 2 2 1 3 3 1 4 2 3 2 3 4 3 3 2 2 3 4 3 4 2 3 6 10 8 6 7 5 6 8 3 5 5 11 8 8 8
25 25 24 24 22 21 19 18 17 18 18 15 12 9 6 5 3 3 5 3 5 3 2 5 5 1 2 3 1 1 1 1 2 3 3 3 3 5 4 6 6 8 10 8 7 1 6 7 7 9 8 9 11 6
26 26 25 24 24 23 20 19 18 19 18 16 12 8 8 7 6 2 2 8 4 4 3 2 5 3 3 2 1 1 2 2 2 3 2 3 2 2 9 19 12 4 5 8 10 10 10 3 3 7 6 7 8 7
26 26 25 25 25 24 22 20 19 18 19 18 13 14 3 1 2 2 6 6 1 3 3 3 4 5 1 1 1 1 2 2 1 3 4 3 3 9 14 7 8 6 6 8 4 5 7 11 9 9 10 11 12 9
26 26 26 25 25 25 23 21 19 19 23 22 7 3 3 2 8 8 3 2 1 3 3 5 2 3 4 2 2 2 0 3 3 5 1 4 7 18 17 16 17 15 11 8 8 9 6 6 10 10 15 14 15 14
26 26 26 26 26 25 25 23 20 27 23 3 4 3 1 6 2 0 3 3 3 4 5 4 8 5 3 4 4 3 3 1 2 4 3 4 6 6 8 8 9 9 8 11 15 17 11 8 9 12 11 12 12 13
25 26 27 27 26 26 26 26 31 14 6 9 9 5 2 2 3 5 5 4 7 7 5 6 4 3 2 2 3 3 3 2 6 1 0 6 9 9 7 9 10 7 8 10 9 14 13 13 10 12 12 12 12 13
25 26 27 27 26 26 27 27 35 31 23 5 5 4 3 4 7 9 11 7 7 6 6 5 3 5 2 1 3 3 4 6 2 2 7 9 5 7 8 7 10 7 8 8 10 10 8 10 8 9 8 8 9 10
25 25 26 27 26 27 29 33 37 26 7 5 8 8 9 9 9 10 8 6 4 5 9 5 4 3 3 4 3 4 4 2 3 6 10 5 6 7 7 6 6 11 9 9 9 7 8 7 7 7 9 11 12 12
25 25 25 26 26 28 29 38 38 8 5 6 7 11 13 6 3 3 3 3 2 8 7 5 4 3 1 4 4 3 3 7 8 8 6 5 6 4 5 6 7 9 9 8 5 5 4 3 4 3 6 8 9 11
24 22 19 25 26 28 32 37 18 3 3 5 8 6 2 6 2 3 7 4 4 8 4 4 4 3 5 5 6 11 6 10 7 6 5 2 4 4 4 6 7 7 7 6 6 5 3 4 5 4 2 6 9 13
22 9 14 24 26 28 41 13 3 5 9 8 7 6 6 3 8 6 4 7 7 7 4 6 8 12 4 4 6 7 10 6 6 4 4 5 6 7 6 6 7 5 6 5 2 2 3 2 5 5 6 3 6 7
11 8 18 24 22 21 10 3 6 9 11 6 6 8 8 4 5 5 5 9 7 5 5 6 5 5 9 10 6 6 7 5 4 6 5 6 6 7 6 7 6 3 5 4 3 3 4 5 5 5 5 6 7 6
13 12 23 29 18 8 6 6 5 7 7 3 3 6 6 4 3 5 8 13 4 3 6 1 8 6 7 6 8 5 4 5 5 5 4 5 7 8 7 6 6 5 6 4 3 3 3 6 5 6 6 7 7 7
24 22 27 32 26 6 6 3 2 3 6 5 4 8 5 4 8 6 10 12 8 5 7 9 9 9 5 5 6 6 6 5 4 3 5 4 5 6 9 8 6 5 5 3 3 7 3 3 2 4 7 8 7 8
16 14 26 21 3 4 4 6 4 3 6 4 4 8 3 2 5 8 7 10 8 7 7 9 12 13 11 9 7 6 7 7 9 9 10 11 8 6 6 6 6 4 5 4 6 6 11 8 6 7 7 7 5 5
4 17 6 3 3 4 3 3 5 4 3 3 8 4 4 4 4 6 6 9 8 11 8 13 13 12 13 15 14 12 12 9 9 9 14 11 7 4 5 6 4 7 8 9 8 9 9 7 7 7 8 7 8 6
11 7 4 5 4 3 4 5 4 4 6 7 4 5 3 3 4 7 5 7 7 6 13 14 16 17 14 13 8 7 8 10 9 10 10 8 10 10 9 6 7 8 8 9 8 7 8 12 13 10 8 9 9 7
10 5 6 8 6 5 5 4 4 5 4 4 5 5 4 4 4 3 6 5 6 6 8 16 11 10 8 4 9 14 14 6 9 11 9 8 9 9 8 9 8 9 10 3 7 7 7 8 13 10 10 10 11 11
7 6 7 5 3 6 5 6 4 4 5 5 6 4 4 4 4 5 5 5 6 8 10 9 7 10 11 12 11 12 10 8 10 12 10 10 10 5 2 5 8 9 6 8 8 9 8 8 9 11 12 12 13 13
5 5 7 6 4 6 7 7 7 6 5 4 4 4 3 4 5 9 5 5 6 6 7 9 10 9 10 12 12 10 11 5 6 9 11 7 9 10 10 8 8 8 9 9 9 11 11 12 12 14 12 16 21 14
6 6 3 2 5 7 5 4 3 5 6 6 6 5 4 6 8 7 4 4 5 5 4 3 7 9 10 7 7 6 2 5 8 7 5 4 7 9 9 9 11 6 8 12 11 13 14 14 14 13 12 10 11 12
4 6 11 7 5 2 7 5 6 7 6 5 8 8 12 11 8 6 6 2 3 2 2 1 2 2 3 4 3 1 2 0 2 2 2 1 2 2 4 4 2 13 9 11 12 12 12 13 13 14 14 12 10 10
3 4 7 5 4 3 4 6 8 5 5 8 10 6 6 5 3 2 3 3 2 3 2 1 3 3 3 3 2 2 3 5 7 7 9 9 2 4 5 5 5 6 6 8 20 15 15 12 11 12 13 10 9 8
4 2 6 4 6 5 3 2 2 2 1 2 1 2 2 3 3 2 3 3 3 5 5 4 3 5 4 3 4 5 5 5 6 7 7 8 5 2 5 6 6 6 6 8 9 10 18 13 13 9 9 8 8 7
2 3 5 3 3 2 2 2 2 3 4 2 3 2 4 5 5 3 4 3 3 2 3 2 3 4 5 7 7 6 5 5 8 10 6 2 2 3 4 6 6 6 6 8 9 10 11 10 9 10 11 10 11 11
2 3 5 4 2 2 2 3 2 3 3 0 2 1 3 4 4 5 2 4 3 3 8 5 4 5 6 4 3 4 10 3 4 5 8 7 4 4 5 5 6 7 8 9 9 10 12 12 9 9 9 10 11 10
4 4 4 4 3 2 1 4 2 1 3 2 3 2 3 4 7 5 2 1 3 3 4 5 4 4 5 6 6 6 9 5 8 10 12 13 12 11 7 5 6 8 10 9 9 10 11 12 9 10 10 10 10 9
Wind_Direction
237 235 237 227 231 227 222 219 237 254 271 277 286 296 321 305 139 99 278 176 122 217 272 193 199 165 132 130 165 272 22 344 36 310 205 249 213 243 206 229 199 191 167 197 161 224 282 166 102 172 215 183 180 141
235 235 232 227 223 222 218 219 219 229 245 262 275 292 300 309 166 115 51 245 133 164 246 264 250 241 186 174 148 213 189 205 215 129 235 312 282 264 199 268 163 247 192 192 183 218 244 207 212 215 174 176 197 170
236 232 229 228 220 221 221 217 212 214 227 242 252 261 284 308 176 157 160 176 107 7 307 359 253 277 114 185 179 158 262 222 216 171 172 218 262 128 241 239 240 247 180 217 22 253 228 229 239 252 192 198 184 178
237 233 226 227 226 220 221 213 208 208 213 229 238 242 237 263 295 164 204 200 110 112 299 283 336 260 140 148 153 154 147 67 99 80 204 223 234 165 248 269 218 216 146 205 264 285 302 261 222 214 213 194 176 171
234 234 227 224 225 218 216 220 210 206 207 216 223 229 227 227 239 161 196 218 205 151 255 275 294 237 144 159 170 164 165 152 140 124 173 235 242 247 242 290 244 184 203 174 223 219 187 259 241 193 194 197 188 166
233 231 227 223 221 221 214 213 211 205 203 201 201 202 229 247 238 159 294 347 198 173 75 306 294 214 156 153 165 176 169 137 123 166 215 245 258 194 266 254 245 221 236 204 236 196 198 233 263 206 197 195 183 175
234 230 227 220 219 218 214 209 209 205 199 191 184 189 232 228 146 167 186 196 157 96 101 307 295 304 152 85 28 70 32 200 156 217 227 214 247 196 242 245 247 224 230 254 258 350 260 180 225 200 190 183 181 166
234 229 225 220 217 214 211 207 207 202 194 175 169 177 160 130 128 154 164 139 153 104 103 241 266 332 177 169 184 142 113 2 254 258 300 216 246 182 254 241 268 297 293 260 248 216 232 297 194 190 160 143 157 172
236 231 225 221 215 211 207 202 200 196 173 153 141 128 113 172 199 187 130 119 163 166 215 180 192 243 100 117 103 54 117 219 269 256 252 162 210 225 238 266 279 245 236 265 275 257 240 231 219 201 176 179 177 177
234 232 227 222 214 208 203 198 190 175 145 135 126 144 217 196 129 120 64 137 221 218 232 228 153 237 139 145 151 113 214 227 249 237 150 231 255 261 273 281 280 270 239 244 279 262 222 224 208 198 201 189 187 178
233 231 228 222 216 206 195 187 175 145 136 154 143 155 94 144 101 159 194 205 169 233 217 218 194 158 218 138 184 187 187 183 282 268 159 270 269 250 235 265 265 268 252 229 232 257 251 219 206 196 199 196 181 168
236 231 227 222 214 204 191 177 159 148 144 131 109 96 119 167 186 194 203 204 207 230 194 165 191 192 168 155 114 174 165 163 244 153 199 261 255 254 284 292 306 311 295 284 253 250 245 240 201 196 194 185 179 170
237 232 228 222 214 202 189 175 163 126 112 86 88 131 170 180 204 207 192 202 200 189 168 151 139 152 141 150 91 139 172 219 72 206 236 233 263 288 287 313 310 308 303 298 300 277 247 240 207 174 178 171 156 153
239 233 229 222 212 197 186 171 151 138 106 133 150 180 203 192 224 199 198 172 186 125 143 124 116 148 134 133 143 170 223 143 224 231 235 246 245 263 304 305 316 312 317 313 309 297 275 231 217 182 169 160 154 156
242 235 228 221 211 195 181 164 162 138 126 160 165 211 213 200 160 189 143 116 127 138 127 97 64 98 121 124 191 122 205 238 218 229 231 225 231 269 287 310 314 316 317 319 311 296 260 232 192 192 158 154 155 145
245 239 228 219 206 191 174 157 168 94 123 163 215 213 190 157 151 170 183 131 160 145 106 82 125 119 219 167 169 206 165 221 237 221 234 237 239 256 262 284 282 275 281 291 301 307 275 210 188 184 118 146 154 155
246 232 198 205 199 182 157 138 107 162 186 206 216 174 171 160 194 165 150 154 165 157 167 135 167 210 99 177 217 191 206 211 214 230 220 220 229 245 245 246 248 269 274 256 262 269 275 107 119 131 166 172 141 144
238 209 190 189 180 159 159 91 164 192 210 207 185 160 176 153 155 143 134 147 162 201 136 203 125 175 201 185 220 227 222 247 225 234 228 231 228 246 238 256 274 251 276 276 235 208 151 163 193 188 139 148 119 119
242 217 188 178 159 124 159 194 185 200 203 150 136 171 168 151 167 139 148 168 165 157 118 180 235 202 213 213 223 205 216 198 229 241 219 225 219 229 242 242 259 257 234 209 202 221 244 231 209 160 158 167 168 155
251 207 181 172 145 122 179 184 197 187 184 167 126 163 167 174 174 159 155 169 161 160 201 210 211 226 202 206 191 209 218 215 164 244 261 266 233 208 230 223 226 228 235 223 215 207 157 179 208 203 166 173 169 177
252 191 180 154 74 129 168 152 180 212 138 159 149 148 185 131 152 169 170 170 193 209 229 224 240 243 243 236 218 206 216 186 225 237 257 270 262 194 227 220 208 198 209 203 212 228 216 221 198 172 183 185 164 170
219 144 91 96 122 164 146 166 139 135 111 129 142 143 158 175 159 170 133 203 231 228 214 228 232 236 242 240 241 237 248 248 246 252 258 254 252 240 241 225 162 219 218 222 208 215 219 204 182 177 183 161 160 150
108 101 113 135 127 161 125 150 110 137 139 171 130 146 179 174 186 123 210 217 241 207 225 232 237 237 245 254 257 252 222 224 239 238 242 234 241 239 244 219 197 210 225 230 208 212 211 193 193 178 177 167 153 156
113 135 158 151 153 141 147 145 121 121 116 165 163 175 171 169 131 196 237 224 220 213 212 229 230 242 245 240 244 249 250 191 240 255 241 236 245 241 212 230 215 220 221 178 187 197 199 191 186 177 172 172 171 167
128 179 150 134 123 134 130 121 137 136 152 168 154 156 171 160 179 226 226 249 229 213 220 217 202 214 229 244 250 250 242 203 229 242 239 220 239 260 253 222 220 218 189 189 195 189 187 184 182 176 173 173 175 173
152 177 163 137 153 135 154 131 164 151 135 146 168 110 149 159 201 238 225 229 207 198 196 197 203 214 230 230 244 248 248 183 199 227 244 208 209 222 236 226 227 235 200 204 187 186 185 183 181 176 174 184 184 169
142 171 141 64 112 116 99 70 82 132 151 162 155 156 153 197 231 243 255 227 194 214 187 166 187 204 225 237 235 246 195 175 190 219 243 198 207 212 217 226 230 233 173 194 195 188 185 184 181 177 174 174 181 179
126 162 146 164 105 99 122 131 150 169 164 158 133 185 186 195 223 227 209 239 165 142 98 277 231 231 238 236 220 262 305 301 72 30 357 317 229 233 247 248 203 175 179 193 193 181 182 181 177 170 168 174 179 183
114 145 110 82 105 126 150 162 186 187 157 166 177 180 217 224 231 219 235 198 144 93 85 259 253 207 234 232 242 226 182 177 178 203 240 255 262 245 204 210 203 186 180 189 200 181 174 172 171 169 168 169 169 161
164 179 101 105 139 171 182 128 173 121 89 120 100 3 303 280 246 207 160 118 136 205 207 193 195 181 222 215 253 233 200 206 214 213 223 242 238 184 173 195 188 173 178 179 174 162 164 161 157 136 130 130 137 147
112 123 89 82 107 60 56 30 17 49 40 45 6 117 249 296 297 239 202 198 192 127 127 225 244 222 219 233 233 243 253 223 217 228 231 241 211 178 184 183 163 162 167 162 156 156 146 140 142 143 146 153 168 166
68 76 120 108 88 35 40 61 60 68 348 84 280 293 335 25 290 278 222 132 131 191 232 216 205 239 225 233 231 228 236 220 197 211 216 227 191 169 159 151 153 149 147 146 149 139 138 144 147 153 156 159 161 158
84 67 70 97 92 29 55 97 45 18 11 358 289 204 218 185 239 265 284 201 169 184 207 216 223 232 241 242 231 240 247 229 227 232 238 217 183 157 143 140 139 139 133 130 131 135 135 135 135 137 141 144 138 138